Location: Duncan Post Office (historical)
(43.1041°N, 93.7094°W)
Time: 20:03:18
(UTC+00:00)

Daily predictions for brighter satellites

Satellite Brightness Start Highest point End
(mag) Time Altitude Azimuth Time Altitude Azimuth Time Altitude Azimuth
Sich 1 Rocket 3.6 12:02:49 10° NNW 12:07:16 61° W 12:11:39 10° S
Cosmos 968 Rocket 4.1 12:02:43 11° NW 12:07:20 35° WSW 12:12:02 10° SSW
CENTAUR R/B 3.6 12:00:25 10° NW 12:08:45 55° WSW 12:17:53 10° S
Meteor 2-17 Rocket 4.5 12:04:04 10° SSW 12:10:01 58° WNW 12:16:04 10° N
ATLAS 3B R/B 3.5 12:03:23 10° WSW 12:10:24 39° NW 12:17:43 10° NNE
Helios 1A Rocket 3.2 12:08:44 10° SSW 12:11:44 30° W 12:14:45 10° NW
Cosmos 1484 Rocket 2.4 12:09:29 10° N 12:13:00 70° WNW 12:16:28 10° SSW
NOSS 2-2 (C) 4.0 12:10:47 13° NW 12:14:31 58° SW 12:20:16 10° SSE
COSMO-SKYMED 1 2.9 12:11:03 10° S 12:14:56 40° W 12:18:51 10° NNW
IRS-1D 4.2 12:12:43 10° N 12:16:58 30° WNW 12:21:12 10° SW
Cosmos 2228 4.4 12:14:34 10° N 12:18:35 39° ENE 12:22:34 10° SSE
Cosmos 292 Rocket 3.7 12:14:33 10° NNW 12:19:21 78° WSW 12:24:05 10° SSE
CZ-3 R/B 3.4 12:11:53 10° WSW 12:21:48 26° SSW 12:26:28 10° SE
SL-8 R/B 4.3 12:17:41 10° SW 12:22:21 58° SSE 12:27:02 10° ENE
Gbstr 26 Del rocket 4.0 12:17:52 11° NW 12:22:57 67° NNE 12:29:30 10° ESE
IGS 5A 3.3 12:20:55 10° N 12:24:54 79° WNW 12:28:51 10° SSW
SL-16 R/B 3.7 12:24:27 10° W 12:28:02 17° NW 12:31:38 10° N
USA 234 3.4 12:26:10 10° SE 12:32:41 66° SW 12:39:12 10° NW
Cosmos 1302 Rocket 4.2 12:27:45 10° SW 12:32:44 48° WNW 12:37:46 10° N
Cosmos 1975 Rocket 3.1 12:28:53 10° S 12:33:09 82° E 12:37:27 10° N
Cosmos 1315 Rocket 3.0 12:32:57 10° N 12:36:49 71° E 12:40:37 10° SSE
Cosmos 1992 Rocket 4.0 12:32:07 10° SSW 12:37:19 80° WNW 12:42:34 10° NNE
Cosmos 1441 Rocket 3.4 12:34:58 10° SW 12:38:03 34° WNW 12:41:09 10° N
deb Kosmos-1261 4.3 12:37:58 10° SW 12:40:15 54° NW 12:43:50 10° NE
Tsikada Rocket 4.1 12:34:08 10° SSW 12:40:25 67° W 12:46:50 10° N
CORIOLIS 4.4 12:35:04 10° NNE 12:40:26 80° ESE 12:45:47 10° S
NOSS 2-2 (D) 4.0 12:38:17 10° NW 12:42:22 60° SW 12:48:03 10° SSE
Cosmos 1025 Rocket 4.2 12:39:40 10° WSW 12:43:01 21° WNW 12:46:22 10° NNW
CBERS-1 4.1 23:08:32 10° SSE 23:13:38 88° ENE 23:18:47 10° NNW
SMAP 3.3 23:09:56 10° SE 23:14:22 46° ENE 23:18:49 10° N
Cosmos 44 Rocket 3.6 23:11:30 10° S 23:16:02 48° ESE 23:20:44 10° NE
BREEZE-M DEB (TANK) 2.4 23:15:53 10° SW 23:18:03 59° SE 23:22:26 10° ENE
Cosmos 1833 Rocket 3.1 23:12:39 10° NNW 23:18:18 73° WSW 23:23:55 10° SSE
USA 215 3.4 23:12:14 10° ESE 23:18:35 56° NNE 23:24:57 10° NW
RESURS DK-1 2.8 23:17:02 10° NNW 23:20:48 38° ENE 23:24:33 10° SE
Meteor 1-28 Rocket 3.3 23:18:08 10° N 23:21:29 65° WNW 23:24:49 10° SSW
SL-12 R/B(2) 4.3 23:15:35 10° SSW 23:23:17 74° ESE 23:32:40 10° NE
Cosmos 540 Rocket 3.7 23:19:54 10° N 23:24:49 44° ENE 23:29:41 10° SE
Landsat 7 4.1 23:22:02 10° SE 23:26:26 44° ENE 23:30:51 10° N
Cosmos 1400 Rocket 4.3 23:24:32 10° SE 23:26:49 15° E 23:29:06 10° NE
SJ-12 4.1 23:26:19 10° SE 23:29:53 41° ENE 23:33:29 10° N
Helios 1A Rocket 4.4 23:31:25 11° E 23:32:07 11° E 23:33:10 10° ESE
Cosmos 1763 Rocket 3.5 23:28:59 10° NNW 23:34:10 64° ENE 23:39:15 10° SSE
Tsikada Rocket 4.3 23:30:04 10° N 23:36:28 77° W 23:42:47 10° S
Cosmos 1140 Rocket 4.4 23:32:34 10° SW 23:37:34 49° WNW 23:42:35 10° N
UNK 3.8 23:35:09 10° NNE 23:39:47 82° WNW 23:44:23 10° SSW
Cosmos 371 Rocket 4.3 23:38:30 10° SSE 23:42:25 26° E 23:46:07 11° NE
Okean 2 Rocket 4.1 23:41:06 10° SE 23:44:40 25° E 23:48:15 10° NE
Timation 1 Rocket 4.3 23:46:49 10° NNW 23:52:49 79° ENE 23:58:47 10° SSE
COSMO-SKYMED 1 3.5 23:52:15 14° NE 23:54:54 25° E 23:58:18 10° SSE
Cosmos 1602 3.4 23:52:27 10° N 23:55:24 43° E 23:58:20 10° SSE
